Weather in Mrakovo

Russia / Republic of Bashkortostan     52°43′02″N   56°37′23″E
temp.,
°C
wind,
m/s
gust,
m/s
humid.,
%
clouds,
%
prec.,
mm/h
press.,
hPa
HPBL,
m
7 march, sun
sun723:00−10se1189100 0.0 101321
02:00−10ene1193100 0.1 101121
05:00−9n2296100 0.5 100950
08:00−9nnw3696100 1.1 1008210
11:00−9nnw5893100 1.4 1008397
14:00−8nnw71082100 0.0 1009715
17:00−10nw588651 0.0 1010617
20:00−16wnw229516 0.0 101320
8 march, mon
mon823:00−18wsw119834 0.0 101420
02:00−16s349793 0.1 101476
05:00−16s599696 0.1 1013262
08:00−15s71396100 0.3 1011399
11:00−9ssw101692100 1.0 1009861
14:00−5sw101692100 1.4 10081163
17:00−4sw91592100 2.3 10081108
20:00−4sw71394100 0.4 1009792
9 march, tue
tue923:00−4sw61294100 0.9 1010619
02:00−4ssw61395100 0.8 1009689
05:00−5ssw81493100 1.7 1008676
08:00−5ssw81394100 0.8 1007644
11:00−4sw71293100 1.4 1008792
14:00−2sw71093100 0.4 1008825
17:00−5wnw3691100 1.8 1009505
20:00−8ene1190100 0.1 100822
10 march, wed
wed1023:00−7ne2696100 1.0 1007204
02:00−7nw3596100 3.1 1004207
05:00−11nw71294100 4.3 1004389
08:00−13wnw6119597 0.2 1006336
11:00−12nw589598 0.3 1008353
14:00−11wnw4691100 0.1 1010534
17:00−11wnw4691100 0.3 1011640
20:00−14wnw4796100 0.3 1013218
11 march, thu
thu1123:00−18nw369997 0.4 1015137
02:00−23nw2310095 0.0 101631
05:00−26nw2210095 0.1 101819
08:00−27nw1210099 0.0 102019
11:00−23nw239498 0.0 1021248
14:00−20nw359183 0.0 1022351
17:00−18wnw468964 0.0 1022505
20:00−25w229520 0.0 102520